GEFSNGP_con_cape1000_156.txt.gz
Probability
0 0 0 0 0 0 0 0 0 0 0 0 3 16 13 19 29 32 42 39 39 39 23 26 29 26 23 19 16 16 16 16 19 19 10 10 6 6 10 10 10 10 10 6
0 0 0 0 0 0 0 0 0 0 0 0 3 23 23 42 39 39 39 39 35 32 26 23 26 26 23 23 16 16 16 19 16 13 10 10 10 10 10 10 10 10 10 10
0 0 0 0 0 0 3 0 0 0 0 3 10 19 19 29 39 32 35 26 26 26 23 19 23 26 23 19 16 16 16 13 13 13 13 10 10 10 10 10 10 10 10 10
0 0 0 0 0 0 3 0 0 0 3 6 6 19 19 19 26 26 19 26 16 16 19 19 16 19 16 13 13 10 6 10 10 10 10 10 10 10 6 6 6 6 6 6
0 0 0 0 0 0 0 3 10 6 6 6 10 13 16 19 23 19 19 16 19 16 19 23 16 13 13 10 10 10 10 6 6 6 6 6 6 6 6 6 3 3 0 0
0 0 0 0 0 0 0 3 6 10 6 10 10 13 13 16 23 19 16 23 23 13 6 6 10 10 13 10 6 3 6 6 3 3 6 6 6 3 3 3 0 0 0 0
0 0 0 0 0 0 0 0 0 6 3 13 10 6 13 13 19 16 10 6 3 3 3 3 3 3 6 3 0 0 0 0 0 0 0 0 3 3 0 0 0 0 0 0
0 0 0 0 0 0 0 0 3 3 3 6 6 19 16 16 10 0 6 3 3 3 0 0 0 0 0 0 0 0 0 0 0 0 0 0 0 0 0 0 0 0 0 0
0 0 0 0 0 0 0 0 3 0 0 6 13 19 19 6 3 6 6 3 0 0 0 0 0 0 0 0 0 0 0 0 0 0 0 0 0 0 0 0 0 0 0 0
0 0 0 0 0 0 10 3 0 0 0 6 13 10 13 6 6 6 6 0 0 0 0 0 0 0 0 0 0 0 0 0 0 0 0 0 0 0 3 0 3 3 3 0
0 0 0 0 0 0 3 3 3 3 3 3 3 0 3 3 3 0 3 0 0 0 0 0 0 0 0 0 0 0 0 0 0 0 0 0 0 0 0 0 0 3 3 3
0 0 0 0 0 0 3 3 3 6 6 3 0 3 3 0 0 0 0 0 0 0 0 0 0 0 0 0 0 0 0 0 0 0 0 0 0 0 0 0 0 0 0 0
0 0 0 0 3 0 0 3 6 6 6 3 3 3 0 0 0 0 0 0 0 0 0 0 0 0 0 0 0 0 0 0 0 0 0 0 0 0 0 0 0 0 0 0
0 0 0 0 0 0 0 0 0 3 0 0 0 0 0 0 0 0 0 0 0 0 0 0 0 0 0 0 0 0 0 0 0 0 0 0 0 0 0 0 0 0 0 0
0 0 0 0 0 0 0 0 0 0 0 0 0 0 0 0 0 0 0 0 0 0 0 0 0 0 0 0 0 0 0 0 0 0 0 0 0 0 0 0 0 0 0 0
0 0 0 0 0 0 0 0 0 0 0 0 0 0 0 0 0 0 0 0 0 0 0 0 0 0 0 0 0 0 0 0 0 0 0 0 0 0 0 0 0 0 0 0
0 0 0 0 0 0 0 0 0 0 0 0 0 0 0 0 0 0 0 0 0 0 0 0 0 0 0 0 0 0 0 0 0 0 0 0 0 0 0 0 0 0 0 0
0 0 0 0 0 0 0 0 0 0 0 0 0 0 0 0 0 0 0 0 0 0 0 0 0 0 0 0 0 0 0 0 0 0 0 0 0 0 0 0 0 0 0 0
0 0 0 0 0 0 0 0 0 0 0 0 0 0 0 0 0 0 0 0 0 0 0 0 0 0 0 0 0 0 0 0 0 0 0 0 0 0 0 0 0 0 0 0
0 0 0 0 0 0 0 0 0 0 0 0 0 0 0 0 0 0 0 0 0 0 0 0 0 0 0 0 0 0 0 0 0 0 0 0 0 0 0 0 0 0 0 0
3 3 3 3 0 0 0 0 0 0 0 0 0 0 0 0 0 0 0 0 0 0 0 0 0 0 0 0 0 0 0 0 0 0 0 0 0 0 0 0 0 0 0 0
0 0 0 0 0 0 0 0 0 0 0 0 0 0 0 0 0 0 0 0 0 0 0 0 0 0 0 0 0 0 0 0 0 0 0 0 0 0 0 0 0 0 0 0
0 0 0 0 0 0 0 0 0 0 0 0 0 0 0 0 0 0 0 0 0 0 0 0 0 0 0 0 0 0 0 0 0 0 0 0 0 0 0 0 0 0 0 0
0 0 0 0 0 0 0 0 0 0 0 0 0 0 0 0 0 0 0 0 0 0 0 0 0 0 0 0 0 0 0 0 0 0 0 0 0 0 0 0 0 0 0 0
0 0 0 0 0 0 0 0 0 0 0 0 0 0 0 0 0 0 0 0 0 0 0 0 0 0 0 0 0 0 0 0 0 0 0 0 0 0 0 0 0 0 0 0
0 0 0 0 0 0 0 0 0 0 0 0 0 0 0 0 0 0 0 0 0 0 0 0 0 0 0 0 0 0 0 0 0 0 0 0 0 0 0 0 0 0 0 0
0 0 0 0 0 0 0 0 0 0 0 0 0 0 0 0 0 0 0 0 0 0 0 0 0 0 0 0 0 0 0 0 0 0 0 0 0 0 0 0 0 0 0 0

GEFSNGP_con_cape1000_162.txt.gz
Probability
0 0 0 0 0 0 0 0 0 0 0 0 10 32 52 61 77 81 77 87 81 81 81 74 74 71 68 65 61 55 55 52 42 45 35 42 42 39 39 39 29 32 32 29
0 0 0 0 0 0 0 0 0 0 0 3 19 45 52 61 77 77 81 81 77 81 81 74 74 68 61 61 61 52 52 48 45 39 42 35 32 35 32 29 26 26 26 23
0 0 0 0 0 0 0 0 0 0 3 23 39 48 61 77 81 81 81 84 81 77 71 74 68 65 61 61 61 55 52 42 42 45 45 39 29 35 32 29 26 26 23 26
0 0 0 0 3 0 0 3 3 6 13 26 42 61 68 90 84 77 81 71 74 71 68 68 65 68 68 61 58 52 42 39 39 39 32 35 39 35 35 29 26 23 26 23
0 0 0 3 3 6 3 6 10 16 32 35 45 55 71 81 81 77 77 74 77 65 58 61 61 58 61 58 48 45 45 45 45 35 32 35 26 23 23 26 29 19 19 19
0 0 0 0 3 10 10 6 19 23 45 52 58 45 58 74 81 74 71 71 68 55 55 58 55 55 55 45 42 35 39 39 29 32 26 23 23 19 19 16 16 19 16 16
0 0 0 3 10 10 3 19 58 61 61 68 68 68 74 71 71 74 71 58 52 55 55 52 55 55 45 39 39 39 32 23 23 23 19 19 16 13 13 13 10 10 10 10
0 0 0 10 10 6 45 65 65 74 74 74 71 68 61 68 65 58 48 45 39 42 42 45 48 45 32 32 32 16 13 13 10 10 3 3 6 10 10 10 10 6 6 10
0 0 13 13 16 29 35 55 71 74 74 84 77 68 58 52 45 45 42 39 39 39 35 35 39 35 23 19 16 13 6 6 6 3 3 3 3 3 6 13 10 6 6 6
6 6 13 13 16 16 39 58 68 71 71 71 68 55 42 35 35 35 39 35 32 32 26 26 23 23 19 16 16 13 6 3 0 3 3 0 3 3 3 3 3 6 3 6
13 10 10 10 19 29 48 52 52 58 52 48 45 42 32 29 35 32 32 32 29 26 19 16 16 13 13 13 13 13 3 0 0 0 0 3 0 0 0 3 3 3 6 6
3 16 13 16 13 16 35 35 39 42 42 42 35 26 23 26 32 32 32 26 23 16 16 10 10 10 10 10 6 6 3 0 3 3 3 3 3 0 0 0 0 0 0 0
10 13 10 6 6 16 23 29 29 35 26 23 16 16 19 23 19 29 16 13 13 16 13 6 10 10 6 6 10 3 0 0 3 3 0 3 3 0 0 0 0 0 0 0
6 6 6 6 3 16 16 19 26 26 19 13 10 16 16 19 13 13 16 13 13 13 10 6 3 0 3 3 6 3 0 0 0 0 0 0 0 0 0 0 0 0 0 0
3 6 6 6 6 10 13 16 16 13 10 10 10 10 13 16 13 10 10 6 10 10 6 6 0 0 0 3 3 3 0 0 0 0 0 0 0 0 0 0 0 0 0 0
3 3 3 6 6 6 10 10 6 3 3 3 6 10 10 13 6 6 13 10 10 10 6 6 3 3 3 3 3 3 0 0 0 0 0 0 0 0 0 0 0 0 0 0
3 3 6 10 6 6 6 6 6 3 3 0 0 3 10 6 6 6 10 10 10 10 6 6 3 3 3 3 3 0 0 0 0 0 0 0 0 0 0 0 0 0 0 0
0 3 3 6 3 6 0 0 3 3 3 3 0 0 6 6 6 6 10 6 6 6 6 0 0 3 3 3 3 0 0 0 0 0 0 0 0 0 0 0 0 0 0 0
3 0 0 3 6 3 0 0 3 3 6 3 0 0 3 6 6 6 3 3 3 0 0 0 0 0 0 0 0 0 0 0 0 0 0 0 0 0 0 0 0 0 0 0
3 3 3 0 0 0 0 3 3 6 6 3 0 0 0 3 3 3 3 0 0 0 0 0 0 0 0 0 0 0 0 0 0 0 0 0 0 0 0 0 0 0 0 0
3 3 3 3 0 0 3 3 3 3 3 3 3 3 0 0 0 0 0 0 0 0 0 0 0 0 0 0 0 0 0 0 0 0 0 0 0 0 0 0 0 0 0 0
3 3 0 3 6 3 3 3 3 3 3 3 3 3 0 0 0 0 0 0 0 0 0 0 0 0 0 0 0 0 0 0 0 0 0 0 0 0 0 0 0 0 0 0
3 3 3 6 6 6 6 3 3 3 0 0 0 0 0 0 0 0 0 0 0 0 0 0 0 0 0 0 0 0 0 0 0 0 0 0 0 0 0 0 0 0 0 0
0 0 3 6 6 3 3 3 0 0 0 0 0 0 0 0 0 0 0 0 0 0 0 0 0 0 0 0 0 0 0 0 0 0 0 0 0 0 0 0 0 0 0 0
0 0 3 3 3 3 3 3 3 0 0 0 0 0 0 0 0 0 0 0 0 0 0 0 0 0 0 0 0 0 0 0 0 0 0 0 0 0 0 0 0 0 0 0
3 3 6 6 3 3 0 0 0 0 0 0 0 0 0 0 0 0 0 0 0 0 0 0 0 0 0 0 0 0 0 0 0 0 0 0 0 0 0 0 0 0 0 0
0 0 0 0 3 0 0 0 0 0 0 0 0 0 0 3 0 0 0 0 0 0 0 0 0 0 0 0 0 0 0 0 0 0 0 0 0 0 0 0 0 0 0 0

GEFSNGP_con_cape1000_168.txt.gz
Probability
0 0 0 0 0 0 0 0 0 0 0 3 13 23 42 61 77 81 90 90 94 90 94 90 84 81 81 77 71 65 61 61 61 61 65 61 55 52 52 52 45 45 39 35
0 0 0 0 0 0 0 0 0 0 0 6 19 48 55 61 81 81 87 87 87 94 94 90 84 81 81 74 68 65 65 65 61 61 68 58 58 48 42 45 42 39 32 35
0 0 0 0 0 0 0 0 0 0 0 16 39 58 65 74 81 87 84 87 87 94 90 90 84 84 81 71 68 61 61 58 58 58 58 48 52 45 45 45 42 42 39 32
0 0 0 0 0 0 0 0 0 6 16 26 52 58 74 81 84 90 87 90 90 94 87 84 84 81 77 71 71 65 65 55 55 55 45 48 42 45 42 35 35 35 29 26
0 0 0 0 0 0 0 0 6 16 19 29 45 61 71 77 87 87 90 90 87 81 84 81 81 71 71 65 65 65 58 58 52 48 45 42 39 32 35 35 29 26 19 19
0 0 0 3 0 0 0 10 29 39 45 48 48 55 71 81 84 84 87 90 84 77 77 74 74 71 65 61 58 61 48 52 48 45 42 42 32 32 29 23 19 19 19 19
0 0 0 10 3 3 0 29 55 58 48 58 77 81 87 87 90 87 87 77 77 71 71 68 65 61 61 61 52 48 39 42 39 42 35 29 26 23 23 16 16 16 13 16
3 0 6 23 16 42 77 84 74 71 71 81 81 81 84 84 84 81 74 71 61 61 58 58 55 55 52 52 45 39 35 35 35 35 23 19 19 16 16 13 16 13 13 16
10 13 61 52 58 71 71 74 74 74 77 81 81 87 74 81 77 77 65 55 55 55 55 52 52 45 45 45 42 39 23 19 16 16 13 13 13 10 6 6 6 6 6 6
35 35 39 45 48 48 52 61 58 65 68 68 77 65 74 71 68 55 52 52 58 52 45 45 39 39 42 35 32 19 19 19 16 10 6 3 6 3 3 6 6 6 6 6
32 26 35 39 42 42 45 52 61 68 68 71 65 68 65 65 52 52 52 48 48 48 45 29 32 29 29 23 23 19 19 13 13 10 3 3 3 3 3 0 0 0 3 3
23 23 29 42 35 42 42 48 58 65 65 61 58 61 55 52 48 52 42 42 42 32 32 26 26 26 23 23 19 19 16 6 3 3 0 0 3 0 0 0 0 0 0 0
23 23 26 23 26 26 32 42 52 65 58 58 55 52 48 32 39 35 35 35 35 32 29 23 19 23 23 19 19 16 10 6 3 0 0 0 0 0 0 0 0 0 0 0
23 23 19 16 19 26 29 32 32 42 35 42 39 32 26 26 32 29 32 26 29 29 26 23 16 10 16 16 16 10 3 3 3 3 0 0 0 0 0 0 0 0 0 0
13 16 16 19 19 19 26 16 26 26 29 35 35 29 19 23 26 23 19 19 26 23 16 10 10 10 6 6 13 10 6 3 3 0 0 0 0 0 0 0 0 0 0 0
13 13 16 16 19 23 10 16 19 19 23 26 29 29 23 19 19 16 13 23 19 16 16 10 10 13 10 6 10 6 3 0 0 0 0 0 0 0 0 0 0 0 0 0
13 13 13 13 10 3 10 13 16 16 13 16 19 16 23 19 16 19 19 16 19 19 13 13 13 13 10 10 10 3 0 0 0 0 0 0 0 0 0 0 0 0 0 0
13 10 10 6 6 6 6 13 13 16 13 16 13 13 13 13 16 16 13 10 6 10 16 13 13 10 10 10 10 6 0 0 0 0 0 0 0 0 0 0 0 0 0 0
3 6 6 6 6 3 6 13 16 13 10 13 10 16 16 16 16 19 16 10 10 10 13 13 3 3 6 6 6 10 0 0 0 0 0 0 0 0 0 0 0 0 0 0
6 3 3 3 3 10 10 13 16 10 13 13 6 13 13 13 13 19 19 13 13 10 10 10 6 6 6 6 0 3 0 0 0 0 0 0 0 0 0 0 0 0 0 0
6 3 3 0 3 16 16 16 13 6 3 6 6 10 13 6 6 13 13 10 10 10 6 0 6 6 3 3 0 0 0 0 0 0 0 0 0 0 0 0 0 0 0 0
6 3 0 0 3 10 10 13 10 6 6 3 6 6 10 10 6 6 16 13 3 0 3 3 3 0 0 0 0 0 0 0 0 0 0 0 0 0 0 0 0 0 0 0
3 3 0 6 10 6 10 10 6 6 6 6 6 6 10 6 6 6 3 6 0 0 0 0 0 0 0 0 0 0 0 0 0 0 0 0 0 0 0 0 0 0 0 0
6 6 10 10 10 6 10 10 10 10 10 10 6 10 6 6 6 3 3 0 0 0 0 0 0 0 0 0 0 0 0 0 0 0 0 0 0 0 0 0 0 0 0 0
6 6 10 13 6 10 10 10 10 6 6 3 0 0 0 3 3 0 0 0 0 0 0 0 0 0 0 0 0 0 0 0 0 0 0 0 0 0 0 0 0 0 0 0
10 6 10 10 10 10 6 10 3 3 0 0 0 0 3 3 3 0 0 0 0 0 0 0 0 0 0 0 0 0 0 0 0 0 0 0 0 0 0 0 0 0 0 0
6 6 6 10 10 6 3 3 3 3 3 0 0 3 3 3 0 0 0 0 0 0 0 0 0 0 0 0 0 0 0 0 0 0 0 0 0 0 0 0 0 0 0 0

GEFSNGP_con_cape1000_174.txt.gz
Probability
0 0 0 0 0 0 0 0 0 0 3 13 26 35 39 48 58 52 58 58 61 55 52 61 65 61 61 58 55 52 45 39 39 32 26 23 16 13 16 19 16 13 13 13
0 0 0 0 0 0 0 0 0 3 13 6 19 42 52 61 61 61 58 58 61 61 61 61 58 55 52 52 45 48 42 39 32 32 26 26 23 19 19 19 16 13 13 10
0 0 0 0 0 0 0 0 0 10 19 19 39 52 58 61 58 58 55 58 61 61 61 68 61 48 55 45 45 42 42 35 32 29 29 26 23 19 19 16 13 10 6 3
0 0 0 0 0 6 19 23 13 19 29 42 58 58 68 65 61 58 55 71 68 68 65 58 55 52 48 45 39 42 32 39 29 32 29 23 16 16 13 6 6 6 6 6
0 0 0 0 0 3 13 29 42 42 45 58 65 65 74 71 71 68 81 71 68 71 58 52 52 52 45 42 45 42 35 32 23 26 23 19 13 10 10 6 6 6 3 3
0 0 0 0 3 6 10 29 55 52 58 68 74 74 81 77 81 74 68 68 65 55 55 52 48 52 45 39 35 32 32 29 26 19 19 19 13 6 0 0 3 6 3 3
0 0 0 3 26 16 6 29 55 58 61 61 68 71 71 74 74 71 61 65 52 45 42 39 42 39 35 26 23 19 19 19 13 10 6 3 0 3 3 3 3 3 3 3
0 0 0 3 39 39 32 35 42 55 58 65 61 65 74 65 58 55 48 42 42 32 35 35 29 32 23 19 16 13 16 10 10 6 3 3 0 0 0 0 3 3 3 3
0 3 3 19 42 32 23 39 45 55 68 65 61 58 68 58 55 52 45 48 42 32 32 26 23 23 23 19 13 13 13 10 6 3 0 0 0 0 0 0 0 0 0 3
13 16 29 23 29 32 35 39 45 48 48 58 61 52 48 52 45 45 39 35 29 29 26 23 23 19 19 16 13 10 10 6 0 0 0 0 0 0 0 0 0 0 0 0
10 19 16 19 26 35 45 45 45 48 45 45 45 48 48 45 42 32 29 26 26 26 23 23 23 19 16 13 13 10 3 0 0 0 0 0 0 0 0 0 0 0 0 0
13 10 10 13 23 29 39 42 48 42 39 35 39 29 29 32 32 23 23 23 23 23 23 23 19 19 16 13 13 6 3 0 0 0 0 0 0 0 0 0 0 0 0 0
6 10 10 13 16 29 29 29 39 32 26 26 26 23 19 16 16 19 16 13 16 19 23 19 19 16 16 13 13 3 3 0 0 0 0 0 0 0 0 0 0 0 0 0
10 13 13 13 13 19 23 19 23 26 23 16 13 13 13 13 16 13 13 10 10 13 13 13 13 10 6 10 6 3 0 0 0 0 0 0 0 0 0 0 0 0 0 0
6 3 3 6 3 10 16 10 19 23 13 10 6 10 10 6 10 13 10 10 10 10 10 10 10 6 3 3 3 0 0 0 0 0 0 0 0 0 0 0 0 0 0 0
3 3 3 3 3 3 6 6 6 6 10 6 3 6 3 0 0 0 3 6 6 6 6 6 6 6 3 3 0 0 0 0 0 0 0 0 0 0 0 0 0 0 0 0
3 3 3 3 3 0 0 0 0 3 3 0 3 3 0 0 0 0 0 3 3 3 3 3 3 0 3 3 0 0 0 0 0 0 0 0 0 0 0 0 0 0 0 0
0 3 3 0 0 3 3 3 3 3 0 0 0 0 0 0 0 0 0 0 3 3 3 0 0 0 0 0 0 0 0 0 0 0 0 0 0 0 0 0 0 0 0 0
0 3 3 0 0 3 3 3 3 3 0 0 0 0 0 0 0 0 0 0 0 3 3 0 0 0 0 0 0 0 0 0 0 0 0 0 0 0 0 0 0 0 0 0
6 3 3 3 3 3 3 3 3 0 0 0 0 0 0 0 0 0 0 0 0 3 0 0 0 0 0 0 0 0 0 0 0 0 0 0 0 0 0 0 0 0 0 0
0 3 0 3 3 3 3 3 3 0 0 0 0 0 0 0 0 0 0 0 0 0 0 0 0 0 0 0 0 0 0 0 0 0 0 0 0 0 0 0 0 0 0 0
0 0 0 0 3 3 3 3 3 0 0 0 0 0 0 0 0 0 0 0 0 0 0 0 0 0 0 0 0 0 0 0 0 0 0 0 0 0 0 0 0 0 0 0
0 0 0 0 3 3 3 0 0 0 0 0 0 0 0 0 0 0 0 0 0 0 0 0 0 0 0 0 0 0 0 0 0 0 0 0 0 0 0 0 0 0 0 0
0 0 0 0 3 3 3 0 0 0 0 0 0 0 0 0 0 0 0 0 0 0 0 0 0 0 0 0 0 0 0 0 0 0 0 0 0 0 0 0 0 0 0 0
0 0 0 0 3 3 0 0 0 0 0 0 0 0 0 0 0 0 0 0 0 0 0 0 0 0 0 0 0 0 0 0 0 0 0 0 0 0 0 0 0 0 0 0
0 0 0 0 0 0 0 0 0 0 0 0 0 0 0 0 0 0 0 0 0 0 0 0 0 0 0 0 0 0 0 0 0 0 0 0 0 0 0 0 0 0 0 0
0 0 0 0 0 0 0 0 0 0 0 0 0 0 0 0 0 0 0 0 0 0 0 0 0 0 0 0 0 0 0 0 0 0 0 0 0 0 0 0 0 0 0 0